EW2692 Weather Reports


Display with metric or nautical units.
time (UTC)temp
F
wind
direction
speed
MPH
gust
MPH
rain 1hr
in
rain 24hr
in
rain mn
in
humidity
%
barometer
mb
20260906103008 64 30 0.0 2.0 0.00 0.00 0.00 96 940.5
20260906101507 65 29 0.0 2.0 0.00 0.00 0.00 96 940.6
20260906100006 65 29 0.0 1.0 0.00 0.00 0.00 95 940.6
20260906094504 65 25 0.0 3.0 0.00 0.00 0.00 95 940.6
20260906093002 65 22 0.0 3.0 0.00 0.00 0.00 95 940.6
20260906091502 65 15 0.0 2.0 0.00 0.00 0.00 95 940.6
20260906090104 65 11 0.0 1.0 0.00 0.00 0.00 95 940.8
20260906084558 66 13 0.0 1.0 0.00 0.00 0.00 94 940.9
20260906083056 66 13 0.0 2.0 0.00 0.00 0.00 94 940.8
20260906081559 66 15 0.0 2.0 0.00 0.00 0.00 93 940.8
20260906080055 67 15 0.0 2.0 0.00 0.00 0.00 93 941.1
20260906074553 67 13 0.0 2.0 0.00 0.00 0.00 93 941.0
20260906073048 67 15 0.0 2.0 0.00 0.00 0.00 93 941.2
20260906071546 68 9 0.0 3.0 0.00 0.00 0.00 93 941.3
20260906070045 68 23 0.0 3.0 0.00 0.00 0.00 93 941.3
20260906064544 67 355 0.0 1.0 0.00 0.00 0.00 92 941.6
20260906063042 68 355 0.0 1.0 0.00 0.00 0.00 92 941.8
20260906061540 68 355 0.0 1.0 0.00 0.00 0.00 91 941.7
20260906060053 68 355 0.0 1.0 0.00 0.00 0.00 90 941.7
20260906054538 69 355 0.0 0.0 0.00 0.00 0.00 88 941.7
20260906053038 69 355 0.0 3.0 0.00 0.00 0.00 88 941.6
20260906051536 70 350 0.0 2.0 0.00 0.00 0.00 87 941.7
20260906050037 70 350 0.0 3.0 0.00 0.00 0.00 86 941.7
20260906044535 71 5 0.0 3.0 0.00 0.00 0.00 85 941.8
20260906043039 71 16 0.0 2.0 0.00 0.00 0.00 84 941.8
20260906041536 72 17 1.0 5.0 0.00 0.00 0.00 82 941.7
20260906040037 73 42 0.0 4.0 0.00 0.00 0.00 81 941.7
20260906034535 73 13 1.0 8.0 0.00 0.00 0.00 80 941.7
20260906033031 74 19 2.0 8.0 0.00 0.00 0.00 78 941.7
20260906031556 74 355 2.0 8.0 0.00 0.00 0.00 77 941.6
20260906030030 75 27 1.0 8.0 0.00 0.00 0.00 77 941.6
20260906024538 75 32 2.0 7.0 0.00 0.00 0.00 76 941.6
20260906023031 75 340 2.0 10.0 0.00 0.00 0.00 75 941.7
20260906021527 75 57 1.0 6.0 0.00 0.00 0.00 76 941.4
20260906020024 75 22 1.0 4.0 0.00 0.00 0.00 75 941.2
20260906014526 76 34 1.0 8.0 0.00 0.00 0.00 74 940.9
20260906013021 77 14 1.0 4.0 0.00 0.00 0.00 71 940.7
20260906011519 78 17 1.0 5.0 0.00 0.00 0.00 69 940.5
20260906010018 79 9 2.0 6.0 0.00 0.00 0.00 68 940.4
20260906004518 80 26 1.0 5.0 0.00 0.00 0.00 66 940.4
20260906003016 80 37 1.0 5.0 0.00 0.00 0.00 66 940.3
20260906001515 81 355 2.0 6.0 0.00 0.00 0.00 64 940.2
20260906000015 81 329 2.0 6.0 0.00 0.00 0.00 63 940.0
20260905234514 82 11 2.0 5.0 0.00 0.00 0.00 62 939.7
20260905233017 82 18 1.0 5.0 0.00 0.00 0.00 62 939.8
20260905231514 82 17 1.0 4.0 0.00 0.00 0.00 61 939.9
20260905230013 82 17 2.0 6.0 0.00 0.00 0.00 63 939.8
20260905224513 81 9 1.0 5.0 0.00 0.00 0.00 63 939.8
20260905223011 82 45 2.0 6.0 0.00 0.00 0.00 63 940.0
20260905221511 82 18 1.0 7.0 0.00 0.00 0.00 61 939.9
20260905220013 83 20 2.0 7.0 0.00 0.00 0.00 61 940.2
20260905214510 83 70 2.0 7.0 0.00 0.00 0.00 62 940.1
20260905213010 83 38 2.0 6.0 0.00 0.00 0.00 61 939.9
20260905211507 82 73 2.0 6.0 0.00 0.00 0.00 64 940.0
20260905210007 81 12 1.0 6.0 0.00 0.00 0.00 65 940.2
20260905204507 81 41 1.0 4.0 0.00 0.00 0.00 66 940.2
20260905203006 81 30 1.0 4.0 0.00 0.00 0.00 67 940.1
20260905201505 81 19 0.0 6.0 0.00 0.00 0.00 66 940.1
20260905200005 81 85 0.0 3.0 0.00 0.00 0.00 66 940.1
20260905194504 82 86 1.0 4.0 0.00 0.00 0.00 66 940.0
20260905193003 82 88 1.0 5.0 0.00 0.00 0.00 65 940.0
20260905191504 83 76 1.0 7.0 0.00 0.00 0.00 64 939.9
20260905190008 83 103 0.0 4.0 0.00 0.00 0.00 63 939.8
20260905184504 84 113 1.0 7.0 0.00 0.00 0.00 62 939.9
20260905183059 82 72 1.0 5.0 0.00 0.00 0.00 64 939.9
20260905181559 81 70 1.0 5.0 0.00 0.00 0.00 65 940.2
20260905180113 81 76 0.0 3.0 0.00 0.00 0.00 66 940.3
20260905174557 81 76 0.0 2.0 0.00 0.00 0.00 65 940.5
20260905173113 82 76 1.0 5.0 0.00 0.00 0.00 63 940.4
20260905171556 82 105 3.0 8.0 0.00 0.00 0.00 63 940.2
20260905170051 81 50 1.0 6.0 0.00 0.00 0.00 64 940.2
20260905164555 81 68 2.0 5.0 0.00 0.00 0.00 65 940.2
20260905163047 80 103 2.0 10.0 0.00 0.00 0.00 66 939.8
20260905161545 79 73 2.0 7.0 0.00 0.00 0.00 68 939.6
20260905160053 79 76 1.0 7.0 0.00 0.00 0.00 68 939.9
20260905154549 78 117 3.0 11.0 0.00 0.00 0.00 70 939.8
20260905153037 77 86 2.0 7.0 0.00 0.00 0.00 71 939.7
20260905151533 76 126 2.0 8.0 0.00 0.00 0.00 73 939.8
20260905150028 75 88 2.0 8.0 0.00 0.00 0.00 75 939.3
20260905144529 75 103 1.0 3.0 0.00 0.00 0.00 75 939.7
20260905143022 72 80 0.0 2.0 0.00 0.00 0.00 81 939.9
20260905141519 69 44 0.0 1.0 0.00 0.00 0.00 87 940.0
20260905140021 67 44 0.0 1.0 0.00 0.00 0.00 90 939.9
20260905134516 65 44 0.0 0.0 0.00 0.00 0.00 93 939.6
20260905133023 64 44 0.0 1.0 0.00 0.00 0.00 93 939.6
20260905131513 64 45 0.0 1.0 0.00 0.00 0.00 93 939.4
20260905130012 64 49 0.0 0.0 0.00 0.00 0.00 93 939.3
20260905124511 63 49 0.0 0.0 0.00 0.01 0.00 93 939.0
20260905123007 64 49 0.0 0.0 0.00 0.01 0.00 92 938.9
20260905121506 64 49 0.0 1.0 0.00 0.01 0.00 92 938.6
20260905120007 65 49 0.0 1.0 0.00 0.01 0.00 92 938.4
20260905114503 65 52 0.0 2.0 0.00 0.01 0.00 92 938.2
20260905113100 65 55 0.0 1.0 0.00 0.01 0.00 91 937.9
20260905111651 65 55 0.0 2.0 0.00 0.01 0.00 91 937.8
20260905110054 65 54 0.0 2.0 0.00 0.01 0.00 91 937.5
20260905104552 65 52 0.0 2.0 0.00 0.01 0.00 90 937.1